Regional Weather Roundup
Issued by NWS Northern Indiana

Home | Current Version | Previous Version | Text Only | Print | Product List | Glossary Off
Versions: 1 2 3 4 5 6 7 8 9 10 11 12 13 14 15 16 17 18 19 20 21 22 23 24 25 26 27 28 29 30 31 32 33 34 35 36 37 38 39 40 41 42 43 44 45 46 47 48 49 50

000
ASUS43 KIWX 010800
RWRIWX

KIWX WEATHER ROUNDUP
NATIONAL WEATHER SERVICE NORTHERN INDIANA
400 AM EDT TUE SEP 01 2015

NOTE: "FAIR" INDICATES FEW OR NO CLOUDS BELOW 12,000 FEET WITH NO
SIGNIFICANT WEATHER AND/OR OBSTRUCTIONS TO VISIBILITY.

* THESE STATIONS ARE NOT UNDER NWS QUALITY CONTROL. THEY ALSO MAY NOT
  REPORT WEATHER SUCH AS PRECIPITATION OR FOG.

INZ001>027-010900-
NORTHERN INDIANA

CITY           SKY/WX    TMP DP  RH WIND       PRES   REMARKS
KNOX*          CLEAR     68  68 100 S5        30.07S
SOUTH BEND     CLEAR     68  67  96 CALM      30.08S FOG
GOSHEN         CLEAR     68  66  93 CALM      30.08S FOG
MONTICELLO*    CLEAR     70  70 100 S3        30.07F
WARSAW*        CLEAR     68  68 100 CALM      30.09S FOG
ANGOLA*        CLOUDY    66  57  72 CALM      30.09S VSB 1/4
FORT WAYNE     PTCLDY    69  66  90 SW5       30.09F

$$
INZ028>050-010900-
CENTRAL INDIANA

CITY           SKY/WX    TMP DP  RH WIND       PRES   REMARKS
LAFAYETTE      MOCLDY    68  66  93 CALM      30.08S
KOKOMO*        CLEAR     66  63  88 CALM      30.09F
MUNCIE*        CLEAR     66  65  96 SW3       30.10F
INDIANAPOLIS   MOCLDY    72  67  84 CALM      30.09S

$$
MIZ043>046-050>051-056>058-064>065-071>073-077>080-010900-
SOUTHWEST LOWER MICHIGAN

CITY           SKY/WX    TMP DP  RH WIND       PRES   REMARKS
BATTLE CREEK   CLEAR     67  64  90 CALM      30.08S
BENTON HARBOR  CLEAR     68  66  93 S3        30.05F FOG
COLDWATER*     CLEAR     64  64 100 CALM      30.08S FOG
HILLSDALE*       N/A     64  64 100 S3        30.09S FOG
HOLLAND        PTCLDY    66  64  93 CALM      30.06S FOG
GRAND RAPIDS   PTCLDY    64  64 100 CALM      30.06S FOG
KALAMAZOO      FOG       66  64  93 CALM      30.08S VSB 1
STURGIS*       CLEAR     66  66 100 S3        30.08S FOG
THREE RIVERS*  FOG       65  65 100 CALM      30.08S VSB 3/4

$$
OHZ001>008-015>018-024>025-010900-
NORTHWEST OHIO

CITY           SKY/WX    TMP DP  RH WIND       PRES   REMARKS
DEFIANCE       FOG       68  65  90 CALM      30.08S VSB 1
FINDLAY        CLEAR     69  66  90 S3        30.08S FOG
TOLEDO EXPRESS CLEAR     66  66 100 CALM      30.07S FOG
TOLEDO METCALF CLEAR     70  65  84 CALM      30.08S HAZE
LIMA           CLEAR     69  66  90 S3        30.10S

$$
AND FOR LAKE MICHIGAN COASTAL AND OPEN LAKE BUOY OBSERVATIONS

STATION/POSITION TEMP    WIND        PRES    VSBY  WAVE
                 AIR SEA DIR/SP/G                  HT/PER
                 (F)     (DEG/KT/KT) (MB)    (MI)  (FT/S)
CALUMET HARBOR    74     180/  3/  5   N/A
MICHIGAN CITY     75     160/ 10/ 13   N/A
BURNS HARBOR      73     190/  8/ 11 1017.9F
SAINT JOSEPH      72     110/  2/  5 1018.6S
SOUTH LAKE BUOY   71 69  170/  8/  8 1016.6F         0
4 MI NW BRIDGMAN  73 72  200/  6/  8   N/A           1
MICHIGAN CITY     73 72  200/  6/  8   N/A           1

$$
&&


USA.gov is the U.S. government's official web portal to all federal, state and local government web resources and services.